Temperature
19 19 19 19 18 18 18 17 17 16 16 15 14 14 14 14 14 14 14 14 13 13 13 12 12 12 11 11 11 11 11 10 10 10 10 10 10 10 10 10 10 10 10
19 19 19 18 18 18 18 17 17 16 16 15 15 15 15 14 14 14 13 13 13 13 13 13 12 12 12 11 11 11 11 10 10 10 9 9 10 10 11 11 11 10 10
19 19 18 18 18 18 18 17 17 17 16 16 15 14 14 13 13 13 13 13 13 13 13 13 13 12 12 12 12 11 11 11 10 10 10 10 10 10 11 11 11 11 10
18 18 18 18 18 17 17 17 17 17 16 15 15 14 14 13 14 14 14 14 14 13 13 13 13 13 12 12 12 12 11 11 10 10 10 10 11 11 10 11 11 11 10
18 18 18 18 17 17 17 17 17 17 16 15 15 14 14 14 14 14 13 13 13 13 13 13 13 12 12 12 12 12 11 11 11 11 10 10 10 10 10 10 10 10 10
17 17 17 17 17 17 17 17 16 16 16 15 15 14 14 14 13 13 13 13 13 13 13 13 13 13 12 12 12 12 11 11 11 11 10 11 10 10 10 10 10 10 10
16 16 16 16 16 16 16 16 16 16 15 15 15 14 14 14 13 13 13 13 13 13 13 13 13 13 12 12 12 11 11 11 11 11 11 11 11 11 11 10 10 10 10
15 15 15 15 15 15 15 15 15 15 15 15 15 14 14 14 13 13 13 13 13 13 13 13 13 13 12 12 12 11 11 11 11 11 11 10 10 10 10 10 10 9 9
14 14 14 14 14 14 15 15 15 14 14 14 14 14 14 13 13 13 13 13 13 13 12 12 12 12 12 12 12 11 11 11 11 11 10 10 10 10 10 10 10 9 9
14 14 13 13 14 14 14 14 14 14 14 14 14 13 13 13 13 13 13 12 12 12 12 12 12 12 12 12 11 11 11 11 10 10 10 10 10 10 9 9 9 9 9
13 13 13 13 13 13 13 13 13 13 13 13 13 13 13 13 13 12 12 12 12 12 12 11 11 11 11 11 11 11 10 10 10 10 10 10 10 9 9 9 9 9 9
13 13 12 13 12 12 12 13 13 13 13 13 13 12 12 12 12 12 12 12 12 12 12 11 11 11 11 11 10 10 10 10 10 10 9 9 9 9 9 9 9 9 8
12 12 12 12 12 12 12 12 12 12 12 12 12 12 12 12 12 12 12 12 12 11 11 11 11 11 10 10 10 10 10 10 9 9 9 9 9 9 9 8 8 8 8
12 11 11 11 11 11 11 11 11 11 11 11 11 11 11 11 11 11 11 11 11 11 11 11 11 10 10 10 10 9 9 9 9 9 9 9 8 8 8 8 8 8 7
11 11 11 10 10 10 10 10 10 10 10 11 10 11 11 11 11 11 11 11 11 11 10 10 10 10 9 9 9 9 9 9 9 9 8 8 8 8 8 8 8 7 7
10 10 10 10 9 9 9 9 9 9 9 10 10 10 10 10 10 10 10 10 10 10 10 10 10 9 9 9 9 9 8 8 8 8 8 8 8 8 8 7 7 7 7
9 9 9 8 8 8 8 8 8 8 9 9 9 9 9 9 9 9 9 9 9 9 9 9 9 9 9 8 8 8 8 8 8 8 8 8 8 7 7 7 7 7 6
9 8 8 8 8 8 8 8 8 8 8 8 8 8 8 8 8 8 9 9 9 9 9 8 8 8 8 8 8 8 7 7 8 7 7 7 7 7 7 7 6 6 6
8 7 7 7 7 7 7 7 7 7 7 7 7 7 7 7 7 8 8 8 8 8 8 8 7 8 8 7 7 7 7 7 7 7 7 7 7 7 6 6 6 6 5
7 6 6 6 6 6 6 6 6 6 6 6 6 6 6 7 7 7 7 7 7 7 7 7 7 7 7 7 7 6 6 6 6 6 6 6 6 6 6 6 5 5 5
6 6 6 5 5 5 5 5 5 5 5 5 5 6 6 6 6 6 6 6 6 6 6 6 6 6 6 6 6 6 6 6 6 6 6 6 6 6 5 5 5 5 4
5 5 5 5 5 5 5 5 4 4 5 5 5 5 5 5 5 5 5 5 5 5 5 5 5 5 5 5 5 5 5 5 5 5 5 5 5 5 5 4 4 4 4
4 4 4 4 4 4 4 4 4 4 4 4 4 4 4 4 4 4 5 5 5 4 4 4 4 4 4 4 4 4 4 4 5 4 4 4 4 4 4 4 3 3 3
4 3 3 3 3 3 3 3 3 3 3 3 3 3 3 4 4 4 4 4 4 4 4 4 4 4 4 4 4 4 4 4 4 4 4 3 3 3 3 3 2 2 2
3 3 2 2 2 2 2 2 2 2 2 2 2 2 2 2 3 3 3 3 3 3 3 3 3 3 3 3 3 3 3 3 3 3 3 2 2 2 2 2 1 1 1
2 2 2 1 1 1 1 1 1 1 1 1 1 1 1 2 2 2 2 2 2 2 2 2 2 2 2 2 2 2 2 2 2 2 2 2 1 1 1 1 1 0 0
Wind_Speed
8 7 6 6 7 7 8 10 10 11 10 9 10 10 10 9 9 9 10 12 14 15 12 10 10 10 9 9 9 7 8 7 5 4 3 4 6 7 7 6 6 7 10
8 7 6 6 6 7 8 9 10 11 11 10 10 9 9 9 9 8 9 12 14 15 13 13 11 11 9 11 11 8 7 6 7 5 4 3 5 7 9 7 8 8 7
8 7 6 6 6 6 8 9 10 11 12 11 7 6 6 6 7 9 10 12 13 14 14 15 12 12 12 11 12 11 11 9 8 7 6 5 6 4 5 8 8 8 7
7 6 6 6 7 7 7 8 9 10 11 11 10 11 10 11 12 11 11 11 14 14 15 15 15 13 12 12 13 13 9 9 8 7 8 6 4 3 3 3 6 8 8
5 5 5 6 6 6 6 6 7 9 11 12 13 13 12 11 9 9 11 12 12 14 15 15 15 15 13 13 13 13 12 11 9 8 7 8 6 5 4 4 4 5 7
3 4 3 3 4 5 5 6 7 8 10 12 13 14 14 13 11 12 12 12 11 12 15 15 15 15 14 14 14 14 14 13 12 10 8 7 6 6 6 7 5 5 5
3 4 4 3 3 3 4 5 7 8 9 11 13 14 15 15 14 13 13 12 11 11 15 15 15 14 14 14 14 14 14 14 13 13 11 10 9 6 6 7 6 5 4
3 4 5 3 3 3 3 5 6 8 9 10 12 13 13 12 11 13 12 13 12 12 13 15 15 15 15 14 14 13 13 12 14 14 13 9 10 8 7 7 6 5 5
5 5 6 4 4 4 3 4 6 7 8 9 9 11 12 11 11 11 12 10 10 10 13 14 15 15 15 15 14 13 14 13 14 14 13 11 9 8 8 7 6 7 7
5 6 6 5 4 4 4 4 5 7 6 7 8 8 10 11 11 10 11 11 11 10 12 14 15 15 15 15 14 11 11 14 13 11 13 12 9 8 7 7 6 7 8
6 5 5 5 5 4 4 4 5 5 5 6 7 8 8 9 9 10 11 11 10 11 11 12 14 15 16 15 14 14 13 14 14 12 13 14 10 8 7 7 6 7 7
6 6 6 4 4 4 4 4 4 4 4 5 5 7 7 7 8 9 10 10 10 11 11 11 12 13 14 14 15 15 15 15 15 14 14 14 11 11 9 8 9 8 7
8 7 6 5 4 4 4 5 4 4 4 4 4 5 6 7 8 8 9 9 9 9 10 11 12 12 13 14 14 14 14 15 15 14 14 14 13 13 10 10 9 8 7
8 7 7 5 5 4 4 5 5 4 4 4 4 5 5 6 6 6 6 7 7 8 9 10 10 10 11 11 12 13 13 13 13 12 12 13 14 13 12 11 11 9 8
8 7 6 6 5 5 5 5 5 5 4 4 4 4 4 5 4 5 5 6 6 7 7 8 8 8 9 9 10 11 11 12 11 11 11 11 13 14 12 10 9 9 8
8 7 7 6 6 6 6 6 6 5 4 5 5 4 4 4 4 4 4 4 5 5 5 7 8 8 7 8 10 9 9 10 11 11 10 10 12 13 14 14 13 13 11
7 6 6 6 6 6 5 6 6 5 5 5 6 5 5 5 4 4 4 4 5 4 5 6 6 6 7 8 9 9 8 8 9 9 8 7 9 11 10 11 12 12 13
6 5 5 6 6 6 5 5 5 5 5 5 6 6 5 5 4 3 4 4 4 4 4 5 5 5 5 7 8 9 9 7 7 8 8 8 8 8 8 8 8 8 8
6 6 5 6 6 7 6 5 5 5 5 6 6 6 5 5 4 4 4 3 3 3 3 3 4 5 5 7 8 8 6 6 6 5 6 8 8 9 10 8 8 6 5
6 7 7 7 7 7 6 5 5 5 5 6 6 6 5 5 5 4 4 3 2 2 2 2 3 4 4 6 8 9 6 5 5 4 5 8 8 10 11 9 9 8 6
6 6 6 6 7 7 6 5 5 5 5 5 6 6 5 5 4 4 3 2 1 1 2 2 2 2 3 5 8 9 6 6 5 4 4 5 8 10 11 9 8 8 6
6 6 6 6 7 6 5 5 5 5 5 5 5 5 5 4 4 4 3 2 1 1 1 1 1 1 2 3 5 8 7 5 5 5 4 5 8 9 10 8 7 9 8
6 5 6 7 7 6 5 5 5 5 5 4 4 5 4 4 3 3 3 2 1 1 1 1 2 2 1 2 4 6 7 6 4 4 5 6 8 8 7 8 9 8 6
5 5 6 7 7 6 5 5 5 5 4 5 5 4 4 4 4 3 3 2 2 2 2 1 2 1 1 1 1 2 2 3 3 3 5 7 7 6 6 7 6 5 5
5 5 5 6 7 7 6 5 5 5 4 5 5 4 4 3 3 3 3 3 3 3 3 2 2 2 3 3 3 2 2 2 3 4 3 3 3 4 3 3 4 4 4
4 5 5 5 6 6 6 6 5 4 4 4 4 4 3 3 3 3 4 4 3 4 4 2 2 2 3 2 3 4 4 5 7 5 4 4 4 4 5 5 4 4 4
Wind_Direction
242 236 232 220 211 205 203 200 197 197 194 194 196 198 202 201 200 200 198 198 194 190 188 191 190 189 191 190 189 189 193 200 186 184 225 247 232 224 220 215 214 211 207
246 234 230 225 219 208 206 205 201 198 198 199 201 201 200 202 203 202 204 205 198 193 195 193 195 193 191 192 194 192 191 197 185 175 179 237 252 238 224 214 214 214 206
248 238 230 232 226 219 215 216 206 200 201 197 194 196 194 197 203 207 210 211 204 199 196 198 196 196 194 198 199 197 193 199 197 188 180 191 219 228 224 215 210 209 209
250 244 232 227 222 223 219 218 210 201 199 197 195 197 203 207 210 205 208 210 207 206 201 200 200 199 200 200 201 201 200 192 200 204 213 216 190 186 228 238 215 208 210
244 252 245 236 222 215 219 223 218 208 200 198 201 204 212 215 212 206 208 213 211 210 207 204 203 204 204 204 203 203 203 202 202 202 203 224 237 224 203 227 226 221 218
296 279 264 256 235 214 214 224 224 218 208 202 203 207 212 213 212 211 212 213 213 212 211 208 207 207 207 206 207 206 204 206 206 206 202 196 200 209 209 222 222 223 225
331 324 316 305 297 246 224 228 225 223 215 208 207 210 213 214 215 214 212 210 213 213 212 210 209 210 212 209 206 208 209 207 207 210 212 210 213 200 199 212 223 226 225
324 315 306 303 307 283 240 237 231 229 221 213 212 215 216 217 220 217 215 213 216 214 209 211 213 213 211 211 211 212 212 210 212 214 212 214 214 210 206 204 204 225 236
333 327 327 322 316 302 265 253 246 238 233 224 217 219 219 221 223 221 217 216 216 213 208 210 213 215 213 212 212 218 215 211 212 214 214 216 213 211 211 208 201 206 230
333 330 324 319 309 297 280 263 256 242 242 236 226 225 223 224 225 223 222 220 217 213 208 211 212 213 215 214 214 219 218 215 215 212 213 217 215 210 207 209 211 211 218
318 318 312 313 314 317 304 280 262 253 246 240 236 231 228 227 228 227 227 223 220 214 211 211 213 213 214 215 216 219 216 219 218 213 213 216 212 210 208 204 207 214 213
305 306 308 312 320 318 313 303 286 267 261 253 245 235 231 231 232 232 231 227 222 217 213 212 214 215 214 213 216 219 216 218 220 216 213 215 211 210 208 208 211 215 214
314 316 321 322 321 322 319 314 308 296 288 274 259 249 238 233 234 237 235 229 226 223 216 213 215 218 217 215 217 219 218 219 220 217 216 215 209 213 211 208 212 216 216
314 320 321 318 320 323 323 323 319 316 309 292 271 265 254 243 237 237 238 233 227 226 223 220 218 219 220 219 218 218 219 220 222 219 218 215 212 214 210 209 212 210 212
317 321 321 321 324 328 327 325 322 324 328 313 292 283 280 264 249 242 240 237 234 234 228 224 224 222 221 221 219 218 219 219 221 221 220 218 212 211 210 210 207 204 211
318 325 325 327 328 328 325 329 327 326 333 321 309 302 298 290 268 251 247 242 237 233 228 225 222 221 224 218 213 216 220 218 217 219 221 218 210 209 207 207 204 202 207
311 315 322 327 324 320 323 322 315 316 322 316 317 314 306 297 285 272 254 242 238 232 228 222 223 224 220 208 207 207 214 219 218 216 216 219 209 203 208 208 204 206 209
316 315 318 317 316 320 321 319 320 323 322 318 317 316 312 304 300 284 265 256 243 231 231 223 218 222 220 202 203 203 211 215 217 215 211 213 203 200 195 194 200 206 209
339 332 325 321 323 323 319 319 324 323 320 315 314 314 316 309 303 290 272 261 257 252 242 223 216 219 220 200 199 195 211 213 212 212 210 206 200 193 183 187 194 198 203
337 333 326 320 317 314 317 319 321 318 315 316 317 316 317 314 310 299 288 274 259 263 263 242 229 222 222 203 196 197 207 212 213 210 207 201 195 188 182 189 190 197 196
322 321 319 316 311 314 319 313 315 311 313 318 317 317 319 316 311 307 305 294 270 264 267 252 251 232 225 208 198 199 209 210 207 206 207 207 191 188 188 190 193 195 179
314 319 318 313 314 318 319 312 310 314 321 319 317 319 324 325 326 318 313 308 275 242 246 239 261 258 231 219 209 204 209 201 199 206 205 197 187 186 185 188 184 167 158
310 317 315 314 315 319 321 316 316 322 324 323 320 320 322 323 324 319 316 322 304 258 245 223 241 260 251 217 207 203 205 203 201 203 190 182 179 178 183 177 166 158 159
311 317 318 316 318 325 329 322 323 328 327 318 314 317 321 323 330 332 327 319 304 281 254 227 236 262 274 248 206 193 196 191 190 176 164 159 161 165 168 164 161 163 169
312 315 314 312 317 326 327 328 330 329 320 313 314 319 320 319 327 333 328 313 301 290 274 257 234 228 252 253 216 188 192 182 172 145 131 130 139 149 148 145 149 154 155
315 317 313 312 315 317 318 322 328 328 322 317 318 316 316 319 323 328 333 339 329 330 316 295 271 269 260 245 208 188 181 173 156 143 157 163 160 161 159 153 150 146 148
Height
1425 1426 1427 1429 1430 1431 1432 1434 1435 1437 1439 1441 1444 1446 1448 1450 1453 1455 1457 1460 1462 1465 1468 1470 1473 1476 1478 1480 1483 1486 1488 1490 1493 1495 1496 1497 1497 1497 1497 1498 1499 1499 1500
1420 1421 1423 1424 1425 1425 1426 1428 1429 1431 1432 1434 1436 1439 1442 1444 1447 1449 1452 1454 1456 1459 1461 1464 1467 1469 1472 1475 1477 1480 1482 1485 1487 1489 1491 1492 1492 1490 1492 1492 1493 1494 1495
1415 1416 1417 1418 1419 1420 1421 1422 1423 1424 1426 1428 1431 1435 1438 1440 1442 1443 1445 1447 1450 1452 1454 1458 1461 1463 1466 1468 1470 1473 1476 1478 1481 1483 1485 1485 1484 1485 1486 1486 1487 1488 1489
1410 1411 1411 1412 1413 1414 1415 1416 1417 1418 1420 1422 1424 1426 1428 1429 1431 1434 1437 1440 1443 1446 1448 1451 1453 1456 1459 1461 1463 1466 1469 1471 1473 1476 1477 1479 1480 1481 1480 1481 1481 1482 1483
1405 1406 1407 1407 1408 1409 1410 1411 1412 1413 1414 1416 1417 1419 1421 1423 1426 1429 1431 1433 1436 1439 1441 1443 1446 1449 1451 1454 1456 1459 1461 1463 1465 1467 1470 1472 1474 1475 1476 1475 1476 1476 1477
1403 1403 1403 1403 1403 1404 1405 1406 1407 1408 1409 1410 1411 1413 1414 1417 1419 1421 1423 1425 1428 1431 1433 1436 1438 1441 1443 1446 1448 1451 1453 1456 1458 1460 1462 1464 1466 1467 1468 1469 1469 1470 1471
1401 1401 1400 1399 1399 1399 1400 1401 1402 1402 1403 1404 1405 1406 1408 1410 1412 1414 1416 1418 1420 1422 1424 1428 1430 1433 1435 1438 1441 1443 1445 1448 1450 1452 1453 1455 1457 1460 1462 1463 1463 1464 1465
1399 1398 1398 1396 1396 1395 1395 1396 1396 1397 1398 1398 1399 1401 1402 1404 1405 1407 1409 1410 1412 1414 1417 1420 1422 1425 1427 1430 1433 1435 1437 1439 1441 1444 1446 1448 1449 1452 1454 1456 1458 1458 1459
1397 1396 1395 1393 1392 1391 1391 1391 1391 1392 1392 1393 1394 1395 1396 1397 1399 1400 1402 1403 1405 1408 1410 1412 1414 1416 1419 1422 1425 1427 1429 1431 1433 1435 1438 1440 1442 1444 1446 1448 1451 1453 1452
1396 1394 1392 1390 1389 1388 1387 1387 1386 1386 1387 1387 1388 1389 1390 1391 1392 1394 1395 1397 1399 1401 1403 1404 1406 1408 1411 1413 1416 1418 1420 1423 1424 1427 1429 1431 1434 1436 1438 1441 1443 1445 1445
1394 1391 1390 1388 1386 1385 1384 1383 1382 1382 1381 1381 1382 1383 1384 1385 1386 1387 1388 1390 1392 1394 1395 1397 1399 1400 1402 1404 1407 1409 1412 1414 1416 1418 1420 1423 1426 1428 1430 1432 1434 1436 1438
1392 1390 1387 1385 1384 1382 1381 1380 1379 1377 1377 1376 1376 1376 1377 1379 1379 1379 1381 1382 1384 1385 1387 1389 1391 1393 1394 1396 1398 1400 1403 1405 1407 1409 1412 1414 1417 1419 1422 1424 1426 1428 1430
1389 1386 1384 1382 1381 1379 1377 1376 1375 1373 1372 1371 1371 1371 1371 1372 1372 1373 1374 1375 1376 1378 1380 1381 1383 1384 1386 1388 1390 1392 1394 1397 1399 1401 1403 1406 1408 1410 1413 1415 1417 1420 1422
1386 1384 1381 1380 1378 1376 1374 1373 1371 1369 1368 1367 1366 1365 1365 1365 1365 1366 1367 1368 1369 1370 1372 1374 1376 1377 1379 1381 1383 1385 1386 1388 1391 1393 1395 1398 1400 1402 1405 1407 1409 1412 1414
1383 1381 1379 1377 1375 1373 1371 1369 1367 1365 1363 1362 1361 1360 1360 1360 1359 1360 1361 1362 1362 1364 1365 1367 1369 1370 1372 1373 1375 1377 1379 1381 1383 1385 1387 1390 1392 1395 1397 1399 1401 1404 1406
1380 1378 1376 1374 1372 1370 1368 1365 1363 1361 1360 1358 1356 1355 1355 1354 1354 1354 1354 1355 1356 1357 1358 1360 1361 1362 1364 1366 1368 1370 1372 1374 1375 1377 1380 1382 1385 1387 1390 1392 1394 1396 1398
1377 1375 1373 1372 1370 1367 1365 1362 1360 1358 1356 1354 1352 1351 1350 1349 1348 1348 1348 1349 1349 1351 1351 1353 1354 1355 1356 1359 1361 1363 1365 1367 1368 1370 1373 1375 1376 1379 1382 1384 1386 1388 1390
1374 1372 1370 1369 1366 1364 1361 1359 1356 1354 1352 1351 1349 1348 1346 1344 1343 1343 1343 1343 1344 1344 1345 1346 1347 1348 1349 1352 1354 1357 1359 1360 1362 1364 1365 1367 1369 1371 1374 1376 1378 1379 1382
1371 1369 1367 1365 1363 1360 1358 1355 1353 1351 1349 1347 1345 1344 1342 1340 1339 1338 1338 1338 1338 1338 1339 1340 1341 1342 1343 1346 1348 1351 1352 1353 1354 1356 1358 1360 1362 1364 1366 1369 1370 1372 1374
1368 1366 1364 1361 1359 1357 1354 1352 1349 1347 1345 1344 1342 1340 1338 1337 1335 1334 1334 1333 1333 1333 1334 1335 1336 1336 1337 1340 1342 1344 1345 1346 1347 1349 1351 1353 1355 1357 1359 1361 1363 1364 1366
1365 1363 1360 1358 1355 1353 1350 1348 1345 1344 1342 1340 1338 1336 1335 1333 1331 1330 1330 1329 1329 1329 1329 1330 1330 1331 1332 1334 1336 1338 1339 1340 1341 1342 1344 1346 1348 1351 1353 1355 1356 1358 1360
1361 1359 1356 1353 1351 1349 1346 1344 1342 1340 1338 1336 1334 1332 1331 1329 1328 1326 1326 1325 1325 1325 1325 1325 1326 1327 1328 1329 1330 1332 1334 1335 1336 1337 1338 1340 1343 1345 1347 1349 1351 1353 1355
1357 1354 1352 1349 1346 1345 1342 1340 1338 1336 1334 1332 1330 1328 1327 1325 1324 1323 1322 1322 1321 1321 1321 1321 1321 1322 1323 1324 1325 1327 1328 1329 1331 1332 1334 1336 1337 1339 1342 1343 1345 1347 1348
1353 1350 1347 1344 1342 1340 1338 1337 1335 1332 1330 1328 1326 1324 1322 1321 1320 1320 1319 1319 1318 1318 1317 1317 1317 1318 1318 1319 1320 1321 1323 1324 1326 1327 1329 1331 1332 1334 1336 1338 1339 1341 1343
1348 1346 1343 1341 1338 1336 1334 1333 1331 1329 1327 1325 1322 1321 1319 1318 1317 1316 1316 1316 1315 1315 1315 1314 1314 1315 1314 1315 1317 1317 1318 1319 1321 1322 1324 1326 1327 1329 1331 1332 1334 1336 1338
1344 1342 1339 1337 1335 1332 1330 1329 1327 1325 1323 1321 1319 1317 1316 1314 1314 1313 1312 1312 1312 1311 1311 1311 1312 1311 1312 1312 1312 1313 1314 1315 1316 1318 1319 1321 1322 1324 1326 1328 1330 1332 1334